Regional Weather Roundup
Issued by NWS Wakefield, VA

Home | Current Version | Previous Version | Graphics & Text | Print | Product List | Glossary On
Versions: 1 2 3 4 5 6 7 8 9 10 11 12 13 14 15 16 17 18 19 20 21 22 23 24 25 26 27 28 29 30 31 32 33 34
000
ASUS41 KAKQ 211010
RWRAKQ

REGIONAL WEATHER ROUNDUP
NATIONAL WEATHER SERVICE WAKEFIELD VA
600 AM EDT TUE OCT 21 2014

Note: "fair" indicates few or no clouds below 12,000 feet with no
significant weather and/or obstructions to visibility. * = Denotes
station may not report precipitation (e.g., rain,snow,etc.),
thunder or fog.

VAZ042-051-052>054-056-211100-
NORTHERN VIRGINIA

CITY           SKY/WX    TMP DP  RH WIND       PRES   REMARKS
WASH NATIONAL  PTCLDY    56  48  74 SW3       29.87F
DULLES         PTCLDY    48  46  93 CALM      29.86S
FORT BELVOIR   FOG       48  46  93 CALM      29.87S VSB 1/2
QUANTICO       MOCLDY    55  47  74 S5        29.87F
FREDERICKSBRG* MOCLDY    54  50  86 CALM      29.86F
STAFFORD*      CLOUDY    48  48 100 CALM      29.90F
WARRENTON      PTCLDY    46  46 100 CALM      29.86F
CULPEPER*      PTCLDY    46  45  93 CALM      29.87F
MANASSAS*      MOCLDY    46  46 100 CALM      29.87S
LEESBURG*      PTCLDY    50  50 100 MISG      29.87S
WINCHESTER     PTCLDY    52  45  76 W7        29.85F
FRONT ROYAL*   SUNNY     46  45  93 CALM      29.85S
LURAY*         PTSUNNY   52  50  93 CALM      29.86F
$$

VAZ048-049-060>072-079>083-211100-
CENTRAL AND SOUTH CENTRAL VIRGINIA...AND NORTH CENTRAL NORTH CAROLINA

CITY           SKY/WX    TMP DP  RH WIND       PRES   REMARKS
RICHMOND       MOCLDY    55  47  74 S3        29.88S
CHESTERFIELD*  CLOUDY   N/A N/A N/A CALM      29.89S
PETERSBURG*    CLOUDY    48  47  95 CALM      29.89F
HANOVER        PTCLDY    51  48  89 CALM      29.89S
TAPPAHANNOCK*  PTCLDY    55  46  70 CALM      29.88S
CHARLOTTSVILLE CLEAR     52  47  83 CALM      29.87S
ORANGE*        PTCLDY    50  46  87 CALM      29.89S
LOUISA*        CLOUDY    52  48  87 CALM      29.86F
FARMVILLE*     CLEAR     50  48  93 CALM      29.87S
CREWE*         SUNNY     49  47  93 CALM      29.89S
FORT PICKETT*  MOSUNNY   52  48  87 SW5       29.89S
LUNENBURG*     MOSUNNY   50  49  97 CALM      29.89S
SOUTH HILL*    CLEAR     54  52  94 SW3       29.95S
LAWRENCEVILLE* PTSUNNY   53  50  89 CALM      29.89S
ROANOKE RAPIDS SUNNY     52  50  93 SW5       29.91S
RALEIGH        PTCLDY    53  49  86 CALM      29.92S
$$

VAZ088>098-211100-
SOUTHEAST VIRGINIA

CITY           SKY/WX    TMP DP  RH WIND       PRES   REMARKS
NORFOLK        CLOUDY    58  54  86 S5        29.90S
VIRGINIA BEACH CLOUDY    61  55  81 S7        29.90R
NORFOLK NAVAL  CLOUDY    61  55  81 CALM      29.91S
WEST POINT*    MOCLDY    58  53  84 CALM      29.89F
NEWPORT NEWS   LGT RAIN  60  55  83 SW6       29.90R
LANGLEY AFB    CLOUDY    59  59  99 SW5       29.90R
FORT EUSTIS    CLOUDY    58  58 100 S6        29.88S
WILLIAMSBURG*  MOCLDY    57  55  94 S3        29.90S
HR EXEC AP*    CLOUDY    54  52  94 CALM      29.93R
FRANKLIN*      CLOUDY    57  55  94 CALM      29.90S
WAKEFIELD      MOCLDY    54  51  90 CALM      29.89S
$$

VAZ020-022-025-037-045-211100-
WEST CENTRAL AND SOUTHWEST VIRGINIA

CITY           SKY/WX    TMP DP  RH WIND       PRES   REMARKS
STAUNTON*      PTCLDY    46  42  89 SE3       29.90F
HOT SPRINGS VA CLOUDY    46  45  98 W12       29.89F
LYNCHBURG      CLEAR     51  47  86 VRB3      29.91S
DANVILLE       CLEAR     50  47  89 SW5       29.91S
SOUTH BOSTON*  NOT AVBL
MARTINSVILLE   PTCLDY    44  44 100 CALM      29.95R
ROANOKE        PTCLDY    52  45  77 W6        29.94R
BLACKSBURG     PTCLDY    46  46 100 CALM      29.95S
DUBLIN*        PTCLDY    50  49  98 SW7       29.95S
MARION*        CLOUDY    52  49  90 W12G20    29.97F
HILLSVILLE*    MOCLDY    50  45  83 W3        29.95S
RICHLANDS*     CLOUDY    53  49  85 SW7       29.96S
WISE*          CLOUDY    50  50 100 SW7       29.97S
ABINGDON*      RAIN      51  51  99 W3        29.97F
$$

MDZ021>025-VAZ099-100-211100-
SOUTHERN MARYLAND AND THE DELMARVA PENINSULA

CITY           SKY/WX    TMP DP  RH WIND       PRES   REMARKS
PATUXENT RIVER MOCLDY    57  48  72 SW7       29.86F
BAY BRIDGE APT NOT AVBL
LEONARDTOWN    PTCLDY    55  46  71 CALM      29.88S
DOVER          PTCLDY    54  50  87 S5        29.84F
GEORGETOWN     CLOUDY    56  51  84 S3        29.88F
EASTON         PTCLDY    55  52  89 CALM      29.90S
CAMBRIDGE      PTCLDY    55  52  88 CALM      29.86F
SALISBURY      CLOUDY    54  50  86 E3        29.88F
OCEAN CITY     CLOUDY    55  53  93 CALM      29.88F
WALLOPS ISLAND CLOUDY    59  56  89 SW3       29.88F
ACCOMACK*      MOCLDY    55  54  94 S6        29.88S
$$

NCZ012>017-030>032-211100-
EASTERN NORTH CAROLINA

CITY           SKY/WX    TMP DP  RH WIND       PRES   REMARKS
ELIZABETH CITY CLOUDY    61  58  90 S5        29.92S
AHOSKIE*       CLOUDY    56  54  94 CALM      29.91S
EDENTON*       CLOUDY    60  58  94 SW5       29.93R
CURRITUCK*     CLOUDY    59  57  94 CALM      29.92S
KILL DEVIL HLS CLOUDY    63  61  95 CALM      29.92R
MANTEO         CLOUDY    64  62  93 S5        29.93R
CAPE HATTERAS  CLOUDY    70  64  81 SE3       29.92F
TARBORO*       PTSUNNY   58  56  92 CALM      29.92S
GOLDSBORO      MOCLDY    57  57  98 CALM      29.91R
WASHINGTON     CLOUDY    55  54  95 CALM      29.93S
GREENVILLE     MOCLDY    57  55  94 CALM      29.94S
NEW BERN       MOCLDY    55  52  89 CALM      29.94S
WILMINGTON     PTCLDY    54  53  97 CALM      29.93S
$$

VAZ048-211100-
ELSEWHERE

CITY           SKY/WX    TMP DP  RH WIND       PRES   REMARKS
HARRISBURG PA  MOCLDY    49  48  97 CALM      29.85S FOG
BALTIMORE      PTCLDY    49  48  97 CALM      29.86S
ANNAPOLIS      CLOUDY    57  48  72 W3        29.85F
ANDREWS AFB    CLEAR     52  47  83 S5        29.86F
WILMINGTON DE  LGT RAIN  52  49  89 NW7       29.88S
PHILADELPHIA   CLOUDY    53  48  83 CALM      29.87F
WILDWOOD NJ*   MOCLDY    54  48  82 CALM      29.89F
ATLANTIC CITY  MOCLDY    49  46  90 CALM      29.89S
HENDERSON NC   CLEAR     50  48  92 SW5       29.91S
GREENSBORO     CLEAR     51  49  92 CALM      29.92S
ROCKY MOUNT    MOCLDY    55  53  93 CALM      29.91S
FAYETTEVILLE   PTCLDY    56  54  93 SW5       29.92S
CHARLOTTE      CLEAR     52  48  86 CALM      29.95R
$$

VAZ100-211100-
MARINE

STATION/POSITION TIME  TEMP    WIND        PRES    WAVE   SWELL
                       AIR SEA DIR/SP/G            HT/PER HT/PER
                 (UTC) (F)     (DEG/KT/KT) (MB)    (FT/S) (FT/S)
44066 TX TWR #4  1000   64 66  210/  6/ 10 1012.9F   4/ 6   3/ 6
CAPE MAY NJ      1000   61 66  200/  3/  5 1011.2F
LEWES DE         1000   58 62  190/  4/  6 1011.2F
15NM E FENWICK I 1000   65 66  230/ 10/ 12 1011.8F   3/ 6   3/ 6
OCEAN-CITY-INLET 1000   61 65  240/  4/  4 1011.4F
WACHAPREAGUE VA  1000   59 61  220/  2/  3 1011.9F
THOMAS POINT MD  1000   58 64  240/  7/  9 1012.2F
GOOSES REEF MD   1000   61     250/ 12/ 16 1011.5R
COVE POINT MD    1000   60     240/ 11/ 13 1010.9F
SOLOMONS ISLAND  1000      65                N/A
BISHOPS HEAD MD  1000   61 58  210/  6/  6 1010.8F
PINEY POINT MD   1000          240/  7/ 12   N/A
POTOMAC MD       1000   62     240/ 10/ 12 1010.6F
CAMBRIDGE MD     1000   57 63  180/  2/  3 1010.8F
LEWISETTA VA     1000   59 63  240/  5/  6 1011.0S
RAPPAHANNOCK LGT 1000          220/  8/ 10 1012.1S
STINGRAY PT      1000   62     230/ 10/ 14 1012.1S
YORK RVR RNG VA  1000   62     220/  8/  9 1011.5S
YORKTOWN VA      1000   59 67  210/  8/  9 1011.5F
JAMESTOWN VA     1000   58     260/  4/  6   N/A
DOMINION TERM VA 1000   62     240/  9/ 10 1012.2R
KIPTOPEKE VA     1000      69  240/  7/  7   N/A
CHES BAY BRIDGE  1000   61 67  180/  7/  8 1011.8R
CHESAPEAKE LGHT  0900   65     230/ 14/ 15 1012.9F
WILLOUBY STN VA  1000   61     210/  5/  5 1011.0R
S CRANEY ISL VA  1000          180/  6/ 10 1012.3R
CAPE HENRY BUOY  1000      68                N/A     2/10
1ST LANDING BUOY 1000   62     210/ 10/ 12 1012.0R
CAPE CHARLES BUO 1000      68                N/A     2/10   2/10
64NM E OF VA BCH 1000   63 69  170/ 10/ 14 1013.1R   4/ 5   3/ 5
DUCK PIER NC     1000   64 69  220/  5/  7 1012.2F
44100 DUCK FRF   1000      71                N/A     3/13   2/13
44056 DUCK FRF   1000                        N/A     2/11   2/11
OREGON INLET NC  1000   64 67  240/  5/ 10 1013.5F
HATTERAS NC      1000   67 71  170/  5/  6 1013.6F
DIAMOND SHLS NC  1000   65     320/  4/  8 1013.3F   4/ 4   3/ 4
CAPE LOOKOUT NC  0900   67     300/  9/ 10 1013.3R
$$



USA.gov is the U.S. government's official web portal to all federal, state and local government web resources and services.